Tracking 35237 objects as of 4-Sep-2026
HD Live streaming from Space Station
objects crossing your sky now

STARLINK-31344

Track STARLINK-31344 now!
10-day predictions
STARLINK-31344 is classified as:


NORAD ID: 59171
Int'l Code: 2024-044V
Launch date: March 4, 2024
Source: United States (US)
Launch site: AIR FORCE EASTERN TEST RANGE (AFETR)
Your satellite tracking list
Your tracking list is empty




NASA's NSSDC Master Catalog

Two Line Element Set (TLE):
1 59171U 24044V   26247.00639518 -.00000731  00000-0 -17048-4 0  9997
2 59171  43.0033 180.2580 0001015 264.8059  95.2677 15.27573742140861
Source of the keplerian elements: AFSPC